This is the latest recevied weather packets stored in our database for station/object W0WFX-2. If no packets are shown the sender has not sent any weather packets the latest 10 day(s).
| Time | Temp. | Humidity | Pressure | Rain* | Wind** | Luminosity | Snow |
|---|---|---|---|---|---|---|---|
| 1788653604 | 33.89° C | 48% | 1012.2 hPa | 0 mm | - | 12 W/m² | - |
| 1788653299 | 33.89° C | 48% | 1012.2 hPa | 0 mm | - | 16 W/m² | - |
| 1788652993 | 34.44° C | 47% | 1012.1 hPa | 0 mm | - | 19 W/m² | - |
| 1788652689 | 34.44° C | 47% | 1012 hPa | 0 mm | - | 24 W/m² | - |
| 1788652388 | 35° C | 45% | 1012 hPa | 0 mm | - | 29 W/m² | - |
| 1788652084 | 35° C | 45% | 1012 hPa | 0 mm | - | 35 W/m² | - |
| 1788651779 | 35° C | 46% | 1012 hPa | 0 mm | - | 36 W/m² | - |
| 1788651474 | 35° C | 45% | 1011.7 hPa | 0 mm | - | 36 W/m² | - |
| 1788651174 | 35° C | 45% | 1011.9 hPa | 0 mm | - | 36 W/m² | - |
| 1788650873 | 35.56° C | 45% | 1012.1 hPa | 0 mm | - | 36 W/m² | - |
| 1788650569 | 35.56° C | 43% | 1011.9 hPa | 0 mm | - | 33 W/m² | - |
| 1788650265 | 35.56° C | 44% | 1012 hPa | 0 mm | - | 38 W/m² | - |
| 1788649960 | 35.56° C | 44% | 1011.7 hPa | 0 mm | - | 42 W/m² | - |
| 1788649656 | 35.56° C | 44% | 1011.7 hPa | 0 mm | - | 46 W/m² | - |
| 1788649354 | 35.56° C | 44% | 1011.9 hPa | 0 mm | - | 50 W/m² | - |
| 1788649076 | 35.56° C | 44% | 1011.6 hPa | 0 mm | - | 48 W/m² | - |
| 1788648749 | 36.11° C | 44% | 1011.6 hPa | 0 mm | - | 51 W/m² | - |
| 1788648448 | 35.56° C | 44% | 1011.9 hPa | 0 mm | - | 51 W/m² | - |
| 1788648144 | 36.11° C | 44% | 1011.5 hPa | 0 mm | - | 52 W/m² | - |
| 1788647840 | 36.11° C | 43% | 1011.9 hPa | 0 mm | - | 52 W/m² | - |
| 1788647536 | 36.67° C | 42% | 1012 hPa | 0 mm | - | 54 W/m² | - |
| 1788647232 | 37.22° C | 40% | 1011.9 hPa | 0 mm | - | 64 W/m² | - |
| 1788646946 | 38.33° C | 39% | 1012 hPa | 0 mm | - | 220 W/m² | - |
| 1788646627 | 38.33° C | 40% | 1012.1 hPa | 0 mm | - | 297 W/m² | - |
| 1788646324 | 38.33° C | 39% | 1011.9 hPa | 0 mm | - | 328 W/m² | - |
* Rain latest hour (hover to see other rain measurements)
** Current wind speed in m/s (hover to see current wind gust speed)